Flag for Poland Weather past 2 weeks in Białystok, Poland

Now
66 °F

Passing clouds.


Feels Like: 66 °F
Forecast: 45 / 68 °F
Wind: 5 mph from Southeast

Location: Bialystok

Current Time: Sep 16, 2014 at 4:01:12 PM

Latest Report: Sep 16, 2014 at 3:00 PM


Visibility: 17 mi

Pressure: 30.27 "Hg

Humidity: 52%

Dew point: 48 °F

Location of BiałystokLocation

Historic Weather in Białystok — Graph

°F

Białystok temperature yesterday

Maximum temperature yesterday: 67 °F (at 3:00 PM)
Minimum temperature yesterday: 46 °F (at 10:00 PM)
Average temperature yesterday: 58 °F

Past Weeks' High & Low Weather Summary

 TemperatureHumidityPressure
High77 °F (Sep 13, 2:00 PM)100% (Sep 11, 6:00 AM)30.39 "Hg (Sep 11, 6:00 AM)
Low41 °F (Sep 16, 6:00 AM)35% (Sep 14, 4:00 PM)29.93 "Hg (Sep 9, 1:00 PM)
Average58 °F79%30.15 "Hg
* Reported Sep 1 2:00 PM — Sep 16 2:00 PM, Białystok, Weather by CustomWeather, © 2014

Note: Actual official high and low records may vary slightly from our data, if they occured in-between our weather recording intervals... More about our weather records

Advertising

Białystok weather history for previous 24 hours

 ConditionsComfort  
Time TempWeatherWind HumidityBarometerVisibility
2:00 PM
Sep 16
65 °FPassing clouds.3 mph54%30.28 "Hg19 mi
1:00 PM65 °FScattered clouds.3 mph60%30.30 "Hg19 mi
12:00 PM62 °FPassing clouds.3 mph64%30.31 "Hg16 mi
11:00 AM60 °FPassing clouds.3 mph69%30.33 "Hg14 mi
10:00 AM56 °FPassing clouds.2 mph76%30.34 "Hg12 mi
9:00 AM53 °FPassing clouds.2 mph86%30.34 "Hg9 mi
8:00 AM49 °FPassing clouds.3 mph93%30.34 "Hg6 mi
7:00 AM44 °FFog.2 mph99%30.34 "Hg5 mi
6:00 AM41 °FFog.1 mph98%30.34 "Hg3 mi
5:00 AM41 °FFog.1 mph97%30.32 "Hg4 mi
4:00 AM44 °FFog.2 mph97%30.32 "Hg4 mi
3:00 AM45 °FClear.2 mph96%30.32 "Hg6 mi
2:00 AM47 °FClear.2 mph93%30.32 "Hg8 mi
1:00 AM49 °FClear.2 mph89%30.32 "Hg14 mi
12:00 AM50 °FClear.2 mph85%30.31 "Hg22 mi
11:00 PM
Sep 15
50 °FClear.2 mph84%30.30 "Hg22 mi
10:00 PM46 °FClear.2 mph92%30.29 "Hg9 mi
9:00 PM51 °FPassing clouds.2 mph79%30.29 "Hg16 mi
8:00 PM56 °FPassing clouds.2 mph67%30.27 "Hg14 mi
7:00 PM56 °FPassing clouds.2 mph70%30.27 "Hg19 mi
6:00 PM64 °FPassing clouds.2 mph47%30.25 "Hg31 mi
5:00 PM66 °FPassing clouds.3 mph44%30.25 "Hg25 mi
4:00 PM67 °FPassing clouds.5 mph42%30.26 "Hg22 mi
Weather by CustomWeather, © 2014

See weather overviewHow to use our weather pages